Theta_e
346 347 346 337 334 336 340 339 340 344 345 346 342 345 348 351 350 348 348 340 345 343 338 319 314 313 312 311 310 312 313 312 308 305 304 305 306 307 308 309 307 304 304
347 347 347 341 334 333 337 337 337 339 340 339 337 345 351 352 351 347 349 341 346 345 343 329 315 313 312 311 309 310 308 305 304 304 305 305 305 305 305 303 304 306 310
347 348 348 347 338 334 334 335 335 335 335 335 335 337 347 350 350 346 349 346 343 346 344 339 319 314 311 311 309 308 306 305 305 306 306 307 306 305 304 306 307 308 312
348 348 348 347 345 337 335 334 334 334 335 335 335 336 341 345 348 345 349 351 342 347 346 343 326 314 311 311 311 308 306 305 305 306 307 308 306 305 308 309 308 309 309
348 347 348 348 347 345 340 336 335 335 335 335 336 336 337 340 344 343 347 352 348 343 348 344 332 316 312 311 313 309 307 305 306 306 307 306 307 309 310 310 310 310 309
347 346 347 348 348 347 344 340 338 337 336 336 337 336 336 336 337 341 348 353 353 344 347 345 338 318 313 312 312 309 307 305 306 306 306 306 310 311 312 312 312 311 309
348 348 348 348 348 347 345 344 340 338 337 336 336 335 335 334 335 341 348 351 354 348 344 346 341 326 314 313 312 308 306 306 306 306 305 307 310 312 312 311 310 310 309
349 349 349 349 348 347 346 343 340 340 337 335 335 334 334 334 336 342 348 351 354 352 344 346 342 336 319 314 312 308 306 305 305 305 305 309 311 312 311 310 309 309 309
349 349 349 349 349 347 346 343 340 341 338 335 334 334 334 334 336 342 348 351 354 354 348 344 344 340 324 316 312 307 306 305 305 305 307 310 311 311 310 309 309 309 309
349 349 349 349 348 346 343 342 341 341 340 338 335 335 335 336 337 341 348 352 354 355 353 344 344 343 326 315 313 308 307 305 305 306 308 311 311 310 309 309 309 309 309
347 348 348 348 347 346 344 343 343 343 343 341 338 337 338 337 337 340 347 350 352 353 354 349 343 341 332 316 314 310 308 305 306 307 307 308 309 308 309 309 308 309 308
347 347 346 347 346 346 346 345 345 345 345 343 343 343 343 342 342 342 345 350 353 354 354 351 345 341 330 319 316 313 308 305 307 308 308 308 308 308 308 308 308 308 307
346 346 345 345 345 345 346 346 346 346 345 346 345 343 345 345 346 347 347 351 356 356 353 351 345 342 327 321 317 315 311 306 309 308 309 309 309 308 308 308 308 306 307
345 345 345 346 345 345 345 345 346 346 345 344 344 344 346 347 349 346 344 350 348 352 352 350 345 336 327 321 317 315 313 308 310 309 310 310 310 308 308 307 306 306 306
343 344 344 344 345 345 345 344 342 339 339 339 339 341 344 344 341 344 346 347 350 347 352 350 345 338 326 322 319 315 312 310 311 310 310 310 310 308 308 306 306 306 305
345 345 344 344 344 344 344 343 342 340 341 341 342 344 346 348 350 353 355 353 352 349 349 350 343 332 329 327 320 314 310 311 313 311 310 310 309 307 307 305 305 304 305
348 348 347 347 346 346 346 346 345 345 346 347 350 352 354 355 356 358 358 356 352 350 351 350 347 335 331 328 319 314 309 313 313 312 310 310 308 307 305 305 305 304 304
357 355 353 352 351 350 350 350 350 351 353 354 356 357 358 358 359 361 360 357 351 349 347 346 345 338 331 330 320 310 311 314 313 312 310 309 307 306 304 304 304 304 304
357 358 360 359 358 357 357 357 358 359 359 359 360 360 360 360 362 361 359 354 353 351 349 345 341 337 327 325 315 309 314 315 313 311 310 307 307 306 304 304 304 304 303
360 361 361 361 361 362 362 363 363 363 363 362 362 362 359 358 361 361 359 356 352 351 349 342 339 337 327 323 309 310 315 314 313 311 308 307 306 306 305 304 303 303 303
363 362 363 363 363 362 361 361 362 364 365 365 364 361 360 358 358 359 357 356 354 351 344 340 340 337 324 317 308 311 315 314 313 309 306 306 306 306 304 304 303 303 302
357 362 362 361 360 360 361 360 361 360 360 359 359 358 359 360 359 358 357 355 353 348 341 340 341 336 327 315 309 314 315 314 312 308 306 307 306 305 304 303 303 303 302
347 349 352 354 355 358 357 358 358 357 360 360 359 359 360 359 357 354 354 350 349 345 339 337 333 329 317 309 310 315 314 313 312 306 306 307 306 304 303 303 303 302 301
345 346 349 350 353 355 356 356 354 354 359 358 358 359 357 354 353 351 350 346 345 342 338 334 329 322 312 308 311 314 313 310 307 305 306 306 305 304 303 303 303 302 301
342 344 345 347 349 351 352 356 356 356 355 358 359 355 355 353 350 346 345 342 341 340 337 331 330 321 310 308 313 314 312 309 306 305 306 306 305 304 303 302 302 301 300
335 337 339 341 345 349 351 352 353 355 356 358 357 353 352 349 346 344 341 340 340 339 334 330 328 318 313 314 314 314 314 309 307 306 305 305 304 303 302 302 302 301 299
Wind_Speed
36 34 34 37 34 32 32 33 30 25 22 21 20 19 17 14 12 14 12 9 8 8 7 6 6 7 8 7 8 8 8 9 10 11 12 13 15 15 15 16 19 19 16
38 36 34 35 36 35 33 33 32 30 27 24 23 22 18 17 15 16 13 11 11 10 9 8 8 9 8 8 8 9 9 10 12 13 13 12 12 13 14 15 14 15 10
42 39 36 34 36 37 37 34 33 32 30 28 27 27 23 21 21 19 16 13 13 12 11 10 10 10 9 9 8 9 9 10 11 13 14 12 12 14 11 9 11 10 9
45 41 39 36 35 37 37 36 35 33 32 31 29 29 27 25 25 23 19 16 15 15 13 12 12 11 10 8 8 8 9 10 10 11 12 12 12 11 10 11 9 9 11
48 45 42 37 36 36 37 37 36 36 35 33 32 33 32 30 27 26 23 19 18 18 16 15 14 13 13 11 9 9 9 9 10 11 11 11 11 7 9 12 15 16 14
45 47 42 40 38 38 37 36 37 38 37 36 36 34 34 34 32 28 26 23 21 20 19 16 16 16 14 11 11 10 10 10 11 12 11 11 8 9 12 14 16 16 19
43 42 42 42 41 40 39 37 39 38 38 39 37 35 36 35 32 29 27 25 25 22 21 20 18 17 16 14 12 11 12 12 12 13 12 11 10 11 15 15 16 17 16
46 44 43 43 42 41 41 40 40 39 38 41 39 37 36 36 32 29 28 28 28 24 23 22 21 18 17 16 15 12 11 12 13 14 13 11 12 10 11 14 17 20 18
47 45 43 43 42 42 43 41 40 39 38 42 41 39 39 38 34 31 30 31 30 28 24 25 25 20 18 16 15 13 13 13 13 13 13 12 9 9 13 14 15 18 19
45 41 40 38 41 42 42 41 40 40 39 39 40 42 40 38 35 33 32 32 32 31 28 28 27 22 18 17 17 15 15 14 14 12 12 11 11 13 13 12 15 16 17
39 38 36 35 38 39 38 39 40 41 39 39 41 44 42 38 38 35 34 35 34 33 31 28 27 24 20 18 16 14 15 15 14 13 12 12 11 11 11 13 14 13 13
40 40 37 37 36 37 37 38 39 39 40 40 41 42 44 41 38 35 35 35 33 33 32 28 24 26 24 19 16 15 16 16 14 13 12 10 11 12 13 14 11 10 11
41 41 38 36 37 38 39 39 41 42 43 44 42 44 46 48 39 32 34 34 34 34 31 29 27 28 25 22 20 18 17 16 13 13 11 10 12 13 13 14 9 11 12
40 40 39 40 39 39 41 42 44 44 45 45 47 47 46 48 42 29 29 35 33 35 33 33 29 31 31 25 22 21 18 16 14 12 11 12 13 14 14 11 12 12 13
36 37 38 39 41 42 43 44 44 44 45 46 46 46 46 48 41 29 26 29 31 32 35 36 35 38 35 29 24 21 18 18 15 13 12 12 13 14 13 11 13 15 16
35 35 35 36 38 40 42 44 45 45 45 46 45 45 46 45 37 30 25 26 27 28 29 41 39 37 33 30 25 21 22 19 15 14 13 11 13 14 11 10 13 14 15
32 35 36 36 37 38 39 42 43 43 43 44 44 44 44 41 34 24 25 25 27 30 39 40 39 35 31 26 23 22 21 17 14 14 11 11 13 11 8 10 12 13 13
16 22 29 32 34 36 38 37 37 38 40 38 34 35 40 38 29 28 27 27 27 30 38 43 37 36 37 29 23 23 19 17 16 13 12 11 9 8 8 11 12 13 14
11 12 17 23 26 27 28 30 31 33 35 38 31 26 26 29 35 35 33 31 29 29 34 43 36 38 35 27 21 20 18 15 14 13 12 9 8 7 9 9 12 10 12
12 12 12 15 19 22 25 28 29 31 33 35 31 25 23 25 31 34 34 34 33 31 35 34 32 33 31 28 23 21 18 17 15 14 11 8 8 7 9 9 11 8 12
12 13 15 17 19 20 22 25 27 29 31 31 27 25 23 24 24 28 31 36 35 31 29 26 27 29 30 27 25 22 18 16 13 13 11 8 7 8 9 9 7 6 11
13 13 14 16 19 22 23 23 25 26 28 26 24 27 24 25 27 29 33 38 35 26 22 19 22 23 27 28 25 19 18 17 15 14 12 8 7 9 8 8 6 4 12
20 21 22 24 23 23 25 25 23 24 25 23 25 28 25 24 25 26 28 34 35 26 22 20 20 24 25 25 21 16 14 15 14 13 12 7 8 8 7 6 3 3 11
13 16 17 20 22 24 25 26 25 26 25 23 25 25 25 25 24 24 24 22 30 28 26 22 22 23 23 23 20 17 14 14 14 13 11 7 8 7 6 4 1 3 10
15 15 15 16 16 20 25 25 27 27 23 22 22 22 23 22 21 23 23 19 23 29 29 25 22 21 21 22 22 16 14 15 14 15 12 9 9 7 6 4 1 3 8
17 16 16 15 14 13 15 19 22 26 27 24 23 23 22 19 18 18 19 19 22 27 31 28 24 23 24 26 27 25 18 19 17 15 13 11 9 8 7 4 2 3 5
Wind_Direction
221 226 227 226 227 230 231 232 236 240 245 255 267 269 269 273 293 305 308 289 285 291 301 308 316 322 319 323 323 324 324 319 310 311 311 308 308 303 304 305 309 312 315
223 226 229 227 228 231 232 230 235 241 245 250 260 265 264 267 280 295 293 288 280 284 295 299 305 310 316 321 326 329 330 319 315 318 322 316 315 315 320 321 319 321 327
223 225 228 229 229 231 233 233 237 242 247 252 257 258 260 267 278 285 281 288 278 281 287 293 296 306 311 319 314 320 321 318 315 318 320 322 323 322 323 323 313 324 298
224 225 227 230 231 233 235 238 240 244 248 251 253 256 259 264 271 276 276 279 276 275 277 280 280 288 289 292 286 308 315 310 312 312 313 316 315 314 320 323 320 325 324
225 226 227 229 233 236 238 240 243 246 249 251 252 254 257 260 263 268 269 269 276 274 274 278 279 282 285 290 281 300 309 307 302 307 310 314 311 299 311 322 328 327 333
223 226 226 229 233 236 239 240 244 247 250 252 252 254 257 259 261 261 264 266 272 272 271 272 273 274 279 280 281 290 306 301 301 305 311 307 308 301 310 316 317 325 333
224 225 227 230 233 237 240 242 245 246 249 251 253 254 256 258 258 258 261 264 265 271 269 265 270 273 275 273 271 285 302 303 305 305 309 301 300 305 304 317 325 324 327
226 227 229 230 233 236 239 242 244 247 246 251 253 255 258 260 259 258 259 261 262 268 264 264 265 269 271 270 272 280 293 297 300 300 294 279 294 300 308 320 322 318 320
227 229 230 231 233 235 239 241 243 248 246 249 253 256 257 261 262 260 257 258 259 262 265 261 263 269 273 274 272 274 289 289 287 287 286 289 295 297 312 312 314 316 315
228 230 232 234 234 236 238 241 244 248 251 253 257 259 261 263 264 263 259 258 259 258 259 261 259 265 267 271 273 275 288 286 286 286 282 278 278 299 308 312 317 313 317
230 231 234 232 235 236 239 242 247 251 254 255 258 262 266 265 265 266 262 260 260 261 259 263 265 261 265 266 261 262 280 286 282 275 279 274 286 303 308 316 312 314 323
231 231 235 235 235 237 239 243 248 253 257 259 261 265 267 266 265 265 265 263 263 261 263 266 264 258 260 260 253 260 274 279 275 276 287 286 305 312 316 320 311 316 312
232 233 236 238 240 241 244 246 250 252 255 260 263 264 268 273 269 262 264 263 259 255 259 261 256 250 247 247 241 248 264 270 270 274 284 300 317 316 316 318 303 302 300
238 239 241 242 244 246 248 250 252 255 258 259 262 266 269 271 273 275 259 257 257 253 254 255 248 244 244 248 233 241 257 260 263 274 280 297 318 318 322 313 309 317 320
245 246 247 248 249 251 253 255 257 260 261 264 268 271 271 273 284 293 281 266 266 268 254 253 244 237 235 241 244 246 252 251 255 269 281 290 314 317 318 305 318 329 332
247 248 250 253 255 256 257 259 261 264 267 270 273 274 276 280 283 280 271 267 258 257 241 248 247 241 237 244 245 244 253 248 253 265 277 289 310 307 313 317 325 331 328
252 254 256 256 255 257 259 259 262 267 269 270 271 270 271 274 281 281 275 267 260 253 240 234 241 239 239 245 247 251 254 254 255 264 271 288 304 305 309 318 323 326 323
256 260 263 264 264 263 264 267 269 271 275 276 274 271 265 271 278 269 266 257 248 241 245 248 243 239 234 226 228 242 241 248 256 267 269 290 292 295 305 314 324 326 326
272 266 270 271 271 271 270 269 270 272 274 275 275 272 270 267 259 255 255 253 248 243 247 248 247 240 233 233 230 229 231 237 255 262 269 277 282 275 301 306 332 331 332
274 267 269 278 281 279 276 274 274 273 271 271 275 275 270 261 253 249 255 248 244 248 252 250 248 238 232 232 218 223 231 227 239 252 258 260 277 277 290 305 334 340 342
279 267 265 266 268 270 273 274 275 274 275 276 278 280 276 267 263 259 262 251 249 254 253 246 242 236 227 231 220 217 220 230 240 246 236 253 262 273 277 304 339 341 346
295 283 269 273 278 274 271 276 276 276 273 271 272 272 264 260 258 262 261 255 246 251 246 239 231 225 222 220 225 222 209 224 232 231 227 242 265 259 275 308 335 346 354
309 302 286 272 272 270 270 270 274 276 274 275 272 262 258 261 264 266 267 254 246 236 229 221 214 209 214 216 214 218 218 238 246 226 223 235 259 254 276 296 326 2 359
313 304 307 290 272 269 269 271 271 272 271 266 264 258 253 256 261 269 266 262 250 229 222 214 210 210 207 206 204 199 219 231 225 221 221 239 239 240 255 272 250 22 9
351 343 327 310 289 272 264 261 268 263 268 264 258 259 259 258 262 270 264 252 245 223 220 211 211 204 202 203 191 196 225 232 218 222 220 221 223 235 229 254 183 44 18
12 7 1 353 329 297 275 272 272 266 265 261 255 259 256 257 263 266 260 244 227 218 216 210 207 198 194 193 190 193 210 216 220 217 222 209 211 222 221 220 156 38 44